Tracking 30058 objects as of 9-Dec-2024
HD Live streaming from Space Station
objects crossing your sky now

DRUMS

Track DRUMS now!
10-day predictions


NORAD ID: 49401
Int'l Code: 2021-102G
Perigee: 522.8 km
Apogee: 547.8 km
Inclination: 97.4 °
Period: 95.2 minutes
Semi major axis: 6906 km
RCS: Unknown
Launch date: November 9, 2021
Source: Japan (JPN)
Launch site: KAGOSHIMA SPACE CENTER UNIVERSITY OF TOKYO (KSCUT)
Your satellite tracking list
Your tracking list is empty




NASA's NSSDC Master Catalog

Two Line Element Set (TLE):
1 49401U 21102G   24344.37052386  .00009184  00000-0  52665-3 0  9994
2 49401  97.4071  25.9856 0018110  10.6005 349.5604 15.12650875169474
Source of the keplerian elements: AFSPC